Tracking 26933 objects as of 5-Feb-2023
HD Live streaming from Space Station
objects crossing your sky now

URSA MAIOR

Track URSA MAIOR now!
10-day predictions
URSA MAIOR is classified as:


NORAD ID: 42776
Int'l Code: 2017-036M
Perigee: 473.1 km
Apogee: 486.7 km
Inclination: 97.2 °
Period: 94.1 minutes
Semi major axis: 6850 km
RCS: Unknown
Launch date: June 23, 2017
Source: Italy (IT)
Launch site: SRIHARIKOTA (SRI)

Uplink (MHz):
Downlink (MHz): 435.950
Beacon (MHz):
Mode: 9600bps FSK
Call sign: URSAMR
Status: Inactive

Your satellite tracking list
Your tracking list is empty




NASA's NSSDC Master Catalog

Two Line Element Set (TLE):
1 42776U 17036M   23036.13902854  .00012721  00000-0  42617-3 0  9995
2 42776  97.1721  71.3921 0009920 208.2821 151.7883 15.31011696312340
Source of the keplerian elements: AMSAT